Theta_e
323 319 319 319 319 321 324 324 325 325 323 322 322 325 323 326 330 337 336 336 335 335 333 333 332 333 332 332 329 326 327 331 333 334 333 333 334 330 323 320 319 319 318 318
320 320 320 322 323 325 324 323 323 324 324 322 321 321 323 325 328 334 337 336 335 334 333 333 331 332 332 333 332 332 333 333 331 334 334 335 324 320 317 314 312 314 314 315
321 323 326 326 325 325 324 324 324 324 322 322 321 320 327 327 330 335 336 337 336 335 336 335 330 332 334 334 333 334 334 332 331 335 327 321 320 317 315 315 315 315 316 316
322 325 324 324 326 323 325 325 326 326 324 324 321 322 327 327 324 328 335 336 337 337 336 334 333 331 332 334 334 334 332 327 324 322 321 320 317 317 316 315 315 316 316 315
325 325 325 325 327 326 326 326 326 326 325 323 322 320 322 324 325 324 325 333 337 337 334 333 332 331 333 334 333 329 324 322 321 320 318 317 317 315 315 316 317 316 313 312
325 326 325 325 325 325 325 323 321 321 319 322 322 325 324 323 326 323 324 330 332 336 334 331 332 332 330 329 324 323 322 321 319 318 318 316 315 315 316 316 316 314 312 312
327 325 327 327 326 323 322 321 324 326 325 324 321 325 322 323 322 323 323 330 332 334 334 333 331 331 329 325 323 321 320 319 318 317 316 315 315 315 316 316 315 313 312 312
329 327 328 327 325 325 325 322 322 327 324 322 323 327 323 322 323 324 324 330 330 332 331 332 332 328 324 322 321 319 319 318 317 316 315 314 315 316 316 315 313 313 312 311
330 330 327 327 327 324 326 324 321 321 324 323 324 326 324 322 323 324 324 326 325 329 328 331 326 323 322 321 319 319 318 317 316 315 314 314 316 316 315 313 313 312 311 310
327 329 329 330 327 327 326 324 325 321 328 327 323 327 326 325 324 322 322 323 325 324 323 323 322 321 320 319 319 318 318 317 315 314 313 315 316 315 314 313 312 311 309 308
326 324 326 328 330 329 327 324 322 320 322 324 326 325 323 323 321 321 322 324 323 323 322 322 320 319 319 318 318 317 316 315 314 313 312 315 315 312 312 311 309 308 308 308
330 325 327 327 326 327 326 325 320 321 321 323 322 323 321 321 323 324 324 323 323 323 322 320 319 319 318 317 317 316 316 315 312 311 313 313 311 309 309 308 308 308 309 309
329 324 327 327 323 325 328 327 323 319 318 322 323 323 323 323 323 324 323 323 323 322 320 320 319 319 318 317 317 316 316 313 311 313 312 313 309 307 308 308 309 310 310 310
329 326 325 326 324 327 327 326 325 322 322 322 324 324 324 322 320 322 323 322 321 321 320 320 319 319 318 317 316 316 314 311 313 312 312 312 308 308 308 309 310 310 310 310
325 327 330 329 327 326 325 325 325 324 321 323 322 322 323 321 320 323 323 322 321 320 320 319 320 319 318 317 316 315 312 313 313 312 312 308 308 308 308 310 310 310 310 310
324 327 328 327 327 328 328 327 325 324 325 325 322 325 322 322 323 322 321 321 321 321 319 319 319 317 318 317 317 314 314 314 312 313 311 306 307 308 309 310 310 310 309 310
326 326 326 328 328 328 326 327 327 326 324 324 325 325 323 322 323 322 322 322 322 321 322 321 321 320 320 318 316 315 314 313 313 312 308 307 308 308 309 310 310 310 310 310
328 327 327 328 328 330 326 327 327 329 329 324 326 325 323 323 324 323 323 324 323 323 324 323 322 322 321 318 316 315 314 313 312 309 306 307 308 309 310 310 310 310 310 309
326 327 329 330 330 329 329 327 327 327 330 328 326 325 325 324 324 324 325 325 325 325 324 324 323 322 321 318 316 315 314 313 310 305 307 308 309 310 310 310 310 310 310 309
326 324 328 327 330 330 327 328 326 324 326 324 329 327 326 324 322 322 326 326 325 325 324 324 323 322 319 317 317 315 314 311 305 307 307 308 309 309 310 310 310 309 308 308
326 327 327 326 328 328 327 327 326 325 323 324 326 326 326 324 326 325 325 324 323 324 324 323 322 321 319 318 316 315 313 307 306 307 307 309 309 309 309 309 308 308 308 309
327 327 327 326 330 331 327 326 326 323 326 325 326 326 328 327 326 326 325 322 325 325 324 323 322 320 319 317 316 314 309 306 307 306 308 309 309 309 309 306 307 307 308 309
328 326 328 325 325 324 327 325 326 326 325 324 324 324 323 324 324 323 324 325 323 321 324 322 322 320 318 317 315 311 307 306 306 307 309 309 309 309 305 306 306 307 308 308
323 326 323 322 323 326 326 328 327 326 325 325 324 323 323 320 320 320 320 320 320 320 322 323 322 320 318 316 314 310 306 307 306 307 309 309 309 307 305 305 307 308 308 307
321 321 324 323 323 328 328 328 327 327 327 324 320 319 320 321 321 321 321 322 321 320 321 321 320 319 318 316 312 309 306 307 307 307 309 309 309 307 306 305 307 307 307 307
319 319 319 320 321 323 322 320 319 319 319 320 320 320 321 321 321 321 322 322 322 323 321 321 320 319 318 315 312 307 307 307 308 309 310 309 308 307 305 305 306 307 306 307
Wind_Speed
5 6 4 9 7 5 6 7 7 3 6 5 1 3 6 21 25 28 28 34 33 30 21 14 14 18 24 25 22 17 16 16 12 14 16 15 15 18 20 23 26 28 27 25
6 5 10 8 5 8 8 8 6 3 3 4 5 7 5 11 14 30 31 31 32 29 24 20 21 26 30 26 21 19 18 12 11 17 15 14 18 22 28 27 27 24 23 27
6 8 5 3 6 8 4 6 1 3 5 3 5 6 4 5 19 21 23 26 30 31 24 22 30 27 29 28 25 22 17 14 14 13 14 19 24 29 31 30 28 25 28 27
5 3 7 8 5 4 4 3 3 5 5 3 4 2 3 4 7 13 19 24 29 23 17 21 28 28 29 26 21 19 16 12 8 14 21 25 26 26 23 24 26 26 28 30
6 4 7 7 2 2 3 3 3 3 3 4 2 5 6 2 6 5 12 17 20 16 18 20 22 20 16 15 17 16 10 6 12 19 23 23 19 20 23 24 22 26 29 26
4 10 5 5 5 5 2 6 8 5 3 3 4 4 3 2 3 2 14 13 11 12 17 19 19 16 14 13 13 6 5 11 15 16 15 16 21 23 24 21 25 28 26 25
6 4 1 7 5 7 11 8 5 6 6 4 4 5 5 3 5 10 12 14 15 13 19 22 22 18 15 15 8 4 7 11 9 10 16 22 25 22 21 25 28 25 26 27
3 4 3 3 5 3 4 6 5 0 2 5 6 3 4 6 9 13 16 15 15 16 16 20 20 17 16 10 5 6 7 6 10 16 22 24 23 22 26 28 27 25 29 32
3 2 3 5 4 6 4 3 5 5 2 2 3 2 5 6 7 13 12 12 10 16 13 17 17 14 9 9 5 3 5 12 17 22 25 24 22 24 25 23 26 30 33 36
2 2 3 3 10 3 4 2 4 4 1 2 5 3 4 6 7 5 10 20 18 15 16 14 14 13 7 3 4 7 12 16 19 23 24 22 21 24 26 26 29 33 32 24
5 4 6 4 2 4 4 3 5 4 4 3 2 5 6 8 8 7 11 14 12 9 9 11 11 6 5 6 7 10 13 17 23 25 24 22 25 28 24 28 29 22 20 19
2 5 2 2 4 2 4 5 5 5 6 1 4 6 6 8 16 14 10 7 5 8 8 13 7 3 3 6 9 13 19 24 27 25 24 25 26 25 23 21 20 21 22 22
3 2 3 7 7 5 5 1 3 4 3 5 5 6 1 9 8 12 17 15 15 15 12 9 5 2 6 10 14 18 23 28 26 26 28 26 29 24 22 19 21 25 24 23
4 3 6 7 6 2 4 4 4 5 4 3 5 7 5 6 8 11 10 15 18 15 12 6 3 7 10 14 17 21 26 26 27 28 27 28 23 22 19 19 24 27 23 19
5 3 1 2 2 2 3 5 6 3 6 5 7 7 6 8 9 12 11 21 18 15 8 3 6 10 13 17 21 25 26 27 29 27 27 27 17 19 17 21 28 22 18 17
3 2 2 4 5 7 5 7 7 5 3 2 8 4 4 5 13 9 21 17 14 9 4 3 7 14 15 18 23 24 27 29 28 27 31 23 17 16 18 25 24 19 16 17
4 4 3 3 4 5 4 5 6 2 6 3 4 2 3 4 6 12 16 13 8 0 5 7 11 13 17 19 21 23 26 29 27 30 30 17 14 17 19 26 20 17 17 15
6 6 3 4 3 2 5 2 0 10 5 6 7 7 4 11 12 17 11 3 2 6 10 13 13 14 16 17 19 21 25 26 27 31 20 13 15 17 23 24 19 18 15 14
7 5 3 3 2 5 1 4 3 2 2 2 5 4 12 10 7 4 3 5 7 11 13 15 13 14 16 15 18 21 24 26 29 25 14 13 16 19 26 21 19 16 12 12
7 5 5 2 3 6 5 3 5 2 4 7 4 3 4 3 3 5 6 10 12 13 15 15 14 14 15 14 16 20 25 27 26 16 12 14 17 22 22 19 17 16 11 7
2 1 5 4 3 6 6 10 1 4 6 4 5 9 2 3 4 3 5 9 11 14 15 15 16 14 13 14 16 20 25 26 22 12 11 14 15 23 18 15 15 11 8 4
7 6 3 3 2 6 4 5 5 5 2 5 10 9 3 2 1 5 7 16 20 17 16 18 18 15 12 11 16 21 24 24 17 9 10 15 19 19 15 17 10 8 6 5
0 6 5 7 6 5 2 1 3 1 4 5 6 5 7 10 14 18 18 14 12 17 18 18 18 16 11 11 16 20 23 22 13 8 11 15 21 13 16 15 9 6 7 7
5 2 3 3 4 8 12 7 4 6 9 7 7 9 9 12 15 15 15 17 18 19 15 19 19 16 12 11 17 20 23 18 9 7 13 16 12 11 16 17 11 8 9 10
1 3 3 2 5 13 10 7 5 2 4 5 5 8 9 11 13 17 19 19 21 23 17 16 19 16 10 13 16 18 20 13 8 8 13 17 8 9 15 15 13 13 13 14
2 4 3 4 1 7 6 6 3 2 3 5 5 7 10 12 15 18 20 21 23 27 20 16 18 16 11 12 13 16 16 10 8 12 16 9 8 9 10 13 16 15 14 14
Wind_Direction
355 52 275 273 228 204 113 73 72 19 356 80 8 278 328 109 119 142 153 172 181 189 177 182 204 199 191 194 209 215 223 233 249 267 286 299 288 305 304 306 306 304 302 304
7 281 240 239 214 83 70 58 358 270 30 87 359 8 34 61 123 146 162 178 185 183 186 196 194 195 199 199 207 217 220 239 285 274 273 283 305 315 315 319 323 321 316 315
169 236 216 90 34 81 57 93 51 220 340 340 60 27 44 42 107 135 159 172 182 182 192 196 190 180 197 199 207 214 215 286 288 255 293 308 312 315 328 327 325 323 319 321
208 228 85 77 69 118 47 310 25 347 39 284 86 256 334 53 57 123 152 169 177 181 190 195 199 213 199 207 208 223 252 262 272 302 310 311 322 324 319 320 319 319 320 321
281 96 95 81 141 87 252 9 328 296 236 66 31 78 279 333 49 29 131 161 175 173 185 192 195 195 196 198 217 224 233 286 317 313 316 322 319 315 316 316 314 320 324 321
200 128 102 153 42 67 348 15 22 33 79 45 345 132 303 298 167 45 69 100 139 180 185 185 169 169 186 187 193 212 297 299 306 315 318 316 317 320 320 315 320 325 325 326
3 353 64 76 50 20 52 46 354 9 11 237 338 65 218 231 172 134 118 120 134 154 172 185 191 196 207 184 189 239 278 301 296 305 310 319 323 323 317 319 324 328 329 329
103 8 7 10 116 107 72 116 138 299 298 282 337 88 232 221 99 87 85 137 133 162 165 174 183 182 173 177 198 252 267 276 309 315 323 330 329 320 319 323 327 324 323 321
100 12 5 119 86 107 322 24 180 113 11 31 287 359 5 59 70 89 86 98 129 151 177 178 171 171 178 192 220 264 302 314 322 326 330 328 319 318 324 326 324 317 316 319
192 78 38 352 74 35 128 177 26 16 311 313 312 224 223 181 173 133 111 109 104 107 107 142 162 163 172 228 284 292 303 316 324 329 329 322 319 322 322 320 320 317 319 323
112 102 291 43 35 211 0 20 61 111 130 165 313 276 218 198 180 155 134 130 136 128 127 142 150 169 223 252 280 304 319 330 331 331 329 320 318 322 320 317 324 336 333 330
57 133 142 193 278 186 164 173 126 117 269 183 155 274 294 187 173 149 146 138 103 86 102 138 145 184 259 300 312 324 328 330 330 331 329 324 327 326 330 341 342 338 331 324
186 30 46 353 351 351 49 344 121 119 79 205 141 264 338 84 122 140 126 123 124 132 137 142 148 320 315 316 320 324 327 330 331 330 328 328 330 330 338 338 335 337 333 329
96 112 152 187 205 190 327 313 305 123 122 220 218 250 187 184 164 162 153 124 129 129 123 106 5 335 319 320 323 327 331 330 329 329 329 330 332 331 339 333 339 337 335 337
89 108 94 181 295 356 291 286 302 289 215 157 252 194 184 193 190 179 160 143 128 125 110 49 343 335 324 326 328 330 329 329 329 328 327 331 336 338 337 336 339 339 341 346
28 198 85 341 339 5 316 326 327 282 237 22 71 122 244 143 143 126 145 136 134 128 65 353 340 346 325 327 331 331 329 328 327 324 328 331 336 341 336 339 340 337 344 346
123 122 84 279 331 341 2 331 300 3 27 127 82 280 102 105 124 132 144 146 139 96 329 322 337 344 335 327 328 328 326 326 323 323 329 338 344 341 338 342 344 346 346 344
136 124 113 204 25 356 240 240 278 100 68 60 50 37 128 132 135 144 151 162 270 309 315 311 319 326 320 322 321 321 324 324 324 328 335 341 342 339 342 343 342 339 342 348
142 118 90 129 181 277 293 15 358 37 345 315 132 156 129 150 167 195 277 314 321 310 298 299 301 304 310 314 320 324 324 324 328 334 344 341 338 341 343 344 343 343 343 348
49 74 118 151 133 237 235 258 266 214 287 223 39 38 310 172 28 263 286 285 290 281 285 281 278 291 300 307 322 326 324 328 334 341 347 337 338 343 342 343 341 345 351 351
148 116 179 168 201 278 224 220 9 107 242 262 337 307 19 136 190 320 310 327 313 286 279 261 263 278 286 306 324 325 329 333 340 348 349 337 345 343 347 353 350 9 9 31
184 146 181 99 143 278 199 124 167 222 187 343 12 13 62 96 27 346 346 329 330 313 274 258 254 265 277 303 324 329 333 338 343 1 351 344 347 347 359 352 358 13 30 85
253 178 181 167 211 256 176 46 162 340 76 55 25 359 338 327 332 337 335 336 346 348 284 253 256 263 273 308 326 333 340 343 353 9 350 351 345 3 11 16 25 41 63 95
343 125 80 87 325 269 260 220 176 117 90 80 17 7 8 354 339 336 337 328 323 326 309 267 256 260 279 317 331 335 343 350 15 3 353 351 358 28 30 29 37 67 75 93
249 52 133 341 344 75 87 122 139 78 37 12 12 346 349 346 345 343 338 324 316 320 316 273 256 262 282 324 331 338 347 360 19 350 353 351 17 39 32 37 57 78 85 87
168 177 145 200 167 128 119 108 86 54 47 71 48 17 6 358 352 346 341 328 320 312 287 259 254 257 292 318 327 341 350 13 14 358 357 18 45 44 49 55 68 87 95 88